Das Wetter in  D-61279 Heinzenberg / Taunus





Wetter Minimum- & Maximum-Werte im April 2018

Standort: Heinzenberg / Taunus - Höhe 297 m         8° 24' 1" Ost 50° 21' 51" Nord
(   3-stündige Aktualisierung    letzte Aktualisierung um 20:46 am 30.04.2018  )


Messgrösse

Minimum

Maximum

Durchschnitt

Temperatur West /
Luftfeuchte West
Anklicken für Monats-Diagramm

-1,7 °C

06:47
06.04.2018

23 %

16:38
19.04.2018

30,8 °C

15:59
20.04.2018

93 %

09:48
14.04.2018

Temp

13,2 °C

Feuchte

65 %

Temperatur Ost /
Luftfeuchte Ost
Anklicken für Monats-Diagramm

-1,5 °C

05:22
06.04.2018

--

--
--

31,0 °C

15:44
20.04.2018

--

--
--

13,5 °C

--

Luftdruck Anklicken für Monats-Diagramm

994,2 hPa

01:19
30.04.2018

1031,6 hPa

08:47
18.04.2018

1011,5 hPa

Taupunkt

-4,0 °C

04:17
06.04.2018

15,5 °C

18:03
29.04.2018

6,2 °C

Windchill
( gefühlte Temperatur )

-6,8 °C

08:37
06.04.2018

30,8 °C

15:59
20.04.2018

11,4 °C

Windgeschwindigkeit /
Windrichtung
Anklicken für Monats-Diagramm

---

58,2 km/h / W-SW

14:54
30.04.2018

8,2 km/h
W-SW

Helligkeit /
Sonnenschein
Anklicken für Monats-Diagramm
Anklicken für Monats-Diagramm

Sonnenschein:

207:40 Stunden

Max: 12:30 Std am
20.04.2018

116 klux

13:15
26.04.2018

37 klux

Solarstrahlung Anklicken für Monats-Diagramm

---

793 W/m²

13:15
26.04.2018

271 W/m²

Regenmenge
    April 2018
Anklicken für Monats-Diagramm

Insgesamt 59,0 l/m²

in 51:15 Stunden
an 15 Tagen

27,2 l/m²

10:37
13.04.2018

Gesamtmenge

59,0 l/m²

Regen-Tage
    April 2018
Anklicken für Monats-Diagramm

>   0 mm/Tag

>   2 mm/Tag

>   5 mm/Tag

> 10 mm/Tag

> 20 mm/Tag

15 Tage     
8 Tage     
2 Tage     
2 Tage     
  1 Tag     

Eisige Tage April 2018 / 2017

Tmin ≤ -10°C     

0 Tage

/

0 Tage

Eistage April 2018 / 2017

Tmax <     0°C     

0 Tage

/

0 Tage

Frosttage April 2018 / 2017

Tmin ≤     0°C     

  1 Tag

/

7 Tage

Kalte Tage April 2018 / 2017

Tmax <   10°C     

  1 Tag

/

3 Tage

Warme Tage April 2018 / 2017

Tmax ≥   20°C     

17 Tage

/

5 Tage

Sommertage April 2018 / 2017

Tmax ≥   25°C     

8 Tage

/

  1 Tag

Heisse Tage April 2018 / 2017

Tmax ≥   30°C     

2 Tage

/

0 Tage


Monatsdiagramm April 2018

Die Kurven zeigen den Durchschnittswert des jeweiligen Tages an


Wetter-Monatsübersicht April 2018
Datum
  Temperatur
   Luftdruck
   Wind
  Regen
   Luftfeuchte
   Helligkeit

Sonnen-
schein

Ø
Temp.

Min.
Temp.

Max.
Temp.

Ø
Luftdruck

Min.
Luftdruck

Max.
Luftdruck

Ø-Geschw.
Haupt-Richtg.

Max.
Wind

Menge /
Dauer

Ø
Feuchte

Min.
Feuchte

Max.
Feuchte

Ø
Helligkeit

Max.
Helligkeit

1.
April
5,7 °C3,1 °C
07:17
8,4 °C
11:52
1006,6 hPa1000,6 hPa
00:12
1013,4 hPa
23:28
13,5 km/h
W-NW
39,0 km/h
15:02  
2,9 l/m²
4:05 Stunden
79 %63 %
00:02
89 %
10:07
19,4 klux104,0 klux
13:32
1:20 Std 
2.
April
8,0 °C0,7 °C
07:53
15,0 °C
15:28
1008,4 hPa1002,1 hPa
20:53
1013,5 hPa
00:18
8,7 km/h
W-SW
32,6 km/h
14:43  
---
66 %44 %
16:03
88 %
09:03
35 klux86 klux
14:08
5:55 Std 
3.
April
13,4 °C7,7 °C
08:04
19,7 °C
15:59
1002,4 hPa1000,5 hPa
19:14
1003,7 hPa
08:04
13,1 km/h
SW
40,5 km/h
20:39  
4,3 l/m²
5:20 Stunden
58 %40 %
16:04
83 %
08:34
38,1 klux103,0 klux
12:59
6:00 Std 
4.
April
12,0 °C9,2 °C
23:36
18,0 °C
12:50
1002,3 hPa1000,4 hPa
12:50
1003,4 hPa
06:45
14,4 km/h
W-SW
39,8 km/h
13:55  
2,9 l/m²
3:00 Stunden
68 %52 %
00:00
82 %
16:05
26 klux100 klux
12:30
3:04 Std 
5.
April
7,5 °C1,1 °C
23:52
10,9 °C
13:46
1010,9 hPa1002,5 hPa
00:01
1023,2 hPa
23:52
20,8 km/h
W
50,1 km/h
13:11  
3,0 l/m²
4:25 Stunden
76 %61 %
13:51
88 %
11:26
22 klux101 klux
13:56
1:30 Std 
6.
April
6,6 °C-1,7 °C
06:47
16,0 °C
17:27
1020,4 hPa1015,3 hPa
19:42
1024,5 hPa
08:07
10,7 km/h
O-SO
38,1 km/h
10:32  
---
60 %32 %
14:47
87 %
08:42
47 klux81 klux
13:42
11:20 Std 
7.
April
13,2 °C3,4 °C
04:28
25,5 °C
17:03
1012,2 hPa1008,1 hPa
18:13
1016,6 hPa
00:18
6,9 km/h
O-SO
25,0 km/h
08:03  
---
51 %28 %
16:43
68 %
04:33
47,5 klux81,2 klux
13:43
11:30 Std 
8.
April
15,4 °C5,2 °C
07:53
26,1 °C
15:38
1007,2 hPa1003,7 hPa
16:48
1010,7 hPa
01:23
3,9 km/h
O-SO
21,8 km/h
09:53  
---
52 %29 %
17:03
75 %
08:38
44,9 klux78,9 klux
13:18
10:10 Std 
9.
April
13,9 °C6,0 °C
07:04
22,2 °C
15:39
1003,6 hPa1000,1 hPa
17:44
1006,8 hPa
04:19
2,7 km/h
O-SO
25,5 km/h
14:14  
---
60 %36 %
15:39
80 %
09:04
27,7 klux94,3 klux
13:39
1:55 Std 
10.
April
13,5 °C7,9 °C
07:35
21,4 °C
16:45
1002,2 hPa999,4 hPa
18:55
1004,6 hPa
23:36
5,8 km/h
W
26,8 km/h
22:20  
12,0 l/m²
4:51 Stunden
70 %51 %
16:55
84 %
21:40
26,7 klux69,4 klux
16:40
1:45 Std 
11.
April
11,5 °C8,0 °C
23:56
19,1 °C
18:06
1005,1 hPa1003,4 hPa
18:06
1006,6 hPa
10:06
1,9 km/h
SO
15,3 km/h
01:26  
2,6 l/m²
5:59 Stunden
79 %55 %
17:56
90 %
09:36
28,7 klux107,0 klux
13:26
5:10 Std 
12.
April
13,7 °C5,8 °C
02:56
23,2 °C
14:41
999,6 hPa996,7 hPa
14:41
1003,8 hPa
00:41
5,6 km/h
SO
29,6 km/h
12:21  
---
68 %42 %
17:26
89 %
07:26
40 klux92 klux
12:41
7:35 Std 
13.
April
8,9 °C6,6 °C
05:27
10,6 °C
15:52
1006,5 hPa1001,3 hPa
00:02
1013,8 hPa
23:28
3,6 km/h
W-SW
33,3 km/h
15:27  
27,2 l/m²
11:05 Stunden
85 %73 %
00:02
90 %
13:52
4,2 klux15,7 klux
15:17
--- 
14.
April
12,5 °C5,2 °C
06:58
19,8 °C
14:33
1016,3 hPa1013,8 hPa
00:03
1018,0 hPa
09:23
3,4 km/h
W-SW
25,6 km/h
11:53  
---
74 %51 %
16:13
93 %
09:48
36,6 klux99,0 klux
13:43
5:50 Std 
15.
April
13,5 °C9,3 °C
02:09
20,1 °C
14:39
1012,4 hPa1008,7 hPa
18:39
1016,9 hPa
00:44
1,4 km/h
NW
12,8 km/h
13:29  
2,1 l/m²
4:40 Stunden
75 %60 %
13:29
89 %
10:09
27,0 klux105,0 klux
14:29
2:40 Std 
16.
April
14,0 °C7,4 °C
08:20
21,4 °C
14:45
1013,3 hPa1010,4 hPa
00:30
1020,0 hPa
23:56
4,3 km/h
NW
22,5 km/h
15:10  
0,3 l/m²
1:05 Stunden
71 %47 %
14:40
91 %
09:10
41 klux100 klux
12:50
8:15 Std 
17.
April
14,5 °C5,2 °C
06:51
24,4 °C
16:46
1023,6 hPa1020,0 hPa
00:01
1028,0 hPa
23:52
1,9 km/h
NW
18,9 km/h
15:31  
---
64 %38 %
17:11
86 %
08:31
47 klux94 klux
12:51
10:55 Std 
18.
April
17,0 °C6,6 °C
07:17
28,0 °C
17:27
1029,1 hPa1027,2 hPa
17:27
1031,6 hPa
08:47
2,9 km/h
SO
20,5 km/h
13:37  
---
57 %30 %
14:12
83 %
08:07
49,3 klux85,4 klux
13:42
12:25 Std 
19.
April
18,5 °C7,5 °C
06:53
30,2 °C
16:28
1026,6 hPa1022,8 hPa
17:43
1030,1 hPa
00:58
5,8 km/h
O-SO
29,6 km/h
11:43  
---
51 %23 %
16:38
80 %
07:38
50,1 klux85,7 klux
13:48
12:20 Std 
20.
April
18,9 °C7,9 °C
06:39
30,8 °C
15:59
1022,1 hPa1017,9 hPa
18:49
1026,0 hPa
01:14
2,4 km/h
SO
17,2 km/h
13:34  
---
53 %29 %
16:04
75 %
08:09
48,8 klux85,3 klux
13:24
12:30 Std 
21.
April
18,6 °C9,6 °C
07:00
28,4 °C
16:15
1018,4 hPa1015,0 hPa
19:00
1021,0 hPa
08:05
3,7 km/h
W-NW
18,2 km/h
15:50  
---
59 %38 %
16:10
80 %
08:50
47,2 klux88,0 klux
14:15
11:40 Std 
22.
April
19,2 °C10,0 °C
07:21
28,5 °C
14:56
1012,7 hPa1008,5 hPa
16:36
1017,5 hPa
01:46
7,5 km/h
W-SW
34,1 km/h
20:26  
---
60 %36 %
15:31
83 %
09:06
45,4 klux97,0 klux
12:46
10:10 Std 
23.
April
17,6 °C12,7 °C
23:58
22,5 °C
15:17
1013,0 hPa1011,0 hPa
03:32
1016,5 hPa
23:58
8,5 km/h
NW
37,9 km/h
16:37  
---
15 Minuten
63 %52 %
14:57
78 %
07:42
40,3 klux103,0 klux
12:42
7:00 Std 
24.
April
14,2 °C7,0 °C
06:23
22,4 °C
15:58
1015,2 hPa1011,3 hPa
23:59
1017,5 hPa
10:03
10,8 km/h
W
36,3 km/h
09:08  
---
63 %44 %
13:18
82 %
07:23
45 klux100 klux
14:48
9:00 Std 
25.
April
13,2 °C9,8 °C
22:30
16,7 °C
17:24
1010,4 hPa1005,9 hPa
13:19
1012,7 hPa
22:30
14,4 km/h
W
44,0 km/h
11:04  
0,9 l/m²
2:15 Stunden
70 %61 %
00:29
86 %
14:24
26 klux110 klux
14:39
3:40 Std 
26.
April
10,2 °C6,1 °C
23:56
15,9 °C
17:20
1015,6 hPa1012,7 hPa
00:20
1018,3 hPa
23:36
20,7 km/h
W
43,2 km/h
15:20  
0,2 l/m²
30 Minuten
62 %43 %
15:20
78 %
11:55
43 klux116 klux
13:15
7:21 Std 
27.
April
11,2 °C2,2 °C
06:46
20,4 °C
18:16
1011,8 hPa1005,3 hPa
18:16
1017,8 hPa
03:50
6,3 km/h
O-SO
29,5 km/h
16:06  
---
59 %36 %
15:01
82 %
07:46
47 klux100 klux
14:06
10:40 Std 
28.
April
12,8 °C6,8 °C
06:32
19,0 °C
14:07
1010,5 hPa1008,2 hPa
00:27
1012,0 hPa
11:07
10,0 km/h
W-SW
38,1 km/h
10:37  
0,3 l/m²
1:30 Stunden
61 %44 %
15:02
79 %
23:57
40 klux107 klux
12:27
6:50 Std 
29.
April
14,6 °C4,9 °C
06:43
26,0 °C
16:28
1005,5 hPa996,5 hPa
23:19
1011,8 hPa
01:27
2,1 km/h
SO
29,9 km/h
12:43  
0,3 l/m²
40 Minuten
73 %50 %
16:03
88 %
09:08
38 klux112 klux
14:03
5:40 Std 
30.
April
13,4 °C9,4 °C
23:30
17,6 °C
00:54
1000,5 hPa994,2 hPa
01:19
1004,5 hPa
23:30
29,1 km/h
W-SW
58,2 km/h
14:54  
---
1:35 Stunden
66 %47 %
15:09
79 %
09:19
31 klux115 klux
14:34
3:30 Std 



April
2018

Temperatur

  

Luftdruck

  

Wind

  

Regen

  

Luftfeuchte

  

Helligkeit

Sonnen-
schein

Ø

Min

Max

Ø

Min

Max

Ø

Max

Max

Ø

Min

Max

Ø

Max

Max

13,2 °C

-1,7 °C

06:47 Uhr
06.04.2018

30,8 °C

15:59 Uhr
20.04.2018

1011,5 hPa

994,2 hPa

01:19 Uhr
30.04.2018

1031,6 hPa

08:47 Uhr
18.04.2018

8,2 km/h

W-SW

58,2 km/h

14:54 Uhr
30.04.2018

27,2 l/m²

11:05 Stunden
13.04.2018

65 %

23 %

16:38 Uhr
19.04.2018

93 %

09:48 Uhr
14.04.2018

37 klux

116,0 klux

13:15 Uhr
26.04.2018

12:30 Std

am
20.04.2018

Gesamt

Gesamt

59,0 l/m²

15 Tage
51:15 h

207:40 Std


Wetter-Diagramme April 2018     Heinzenberg / Taunus   
TemperaturLuftfeuchte
SolarstrahlungLuftdruck
HelligkeitSonnenschein
RegenmengeRegendauer
Wind-GeschwindigkeitWind-Richtung